GFSCGP_850_thetae_057.txt.gz
Theta_e
308 307 309 310 313 314 315 316 317 318 319 320 321 323 323 322 322 322 323 323 323 323 323 323 323 323 323 323 324 324 324 324 327 327 327 328 328 327 328 329 329 334 337 337
307 308 308 309 310 312 314 315 315 316 316 318 320 322 322 321 321 321 322 322 322 322 321 321 322 322 322 323 323 324 323 323 325 327 328 328 327 327 329 330 332 337 338 337
308 308 308 308 309 311 312 314 315 316 316 317 317 319 319 319 319 318 318 318 318 318 319 319 320 321 321 322 322 322 323 323 325 327 327 327 327 328 330 332 335 338 339 339
307 308 306 307 309 310 312 312 313 314 315 317 316 319 320 320 320 319 318 318 318 318 318 317 318 318 319 320 320 321 321 322 325 327 326 327 328 329 331 334 337 339 340 341
308 306 306 307 309 310 311 311 313 314 315 316 316 316 318 318 319 319 320 318 317 317 317 317 317 316 316 317 317 319 320 323 325 328 328 330 331 333 335 338 340 339 338 335
309 307 306 306 308 309 310 311 311 312 313 315 315 316 317 318 318 318 318 317 317 317 317 316 316 317 318 319 319 319 322 323 328 330 331 333 335 337 339 339 338 336 335 333
310 309 309 307 307 307 308 310 311 312 312 313 314 315 316 318 317 317 317 317 317 317 317 317 317 317 318 318 320 321 321 326 331 333 336 337 339 339 339 338 337 336 332 332
311 312 309 309 308 307 308 309 311 311 312 312 312 314 315 316 316 316 316 316 317 318 320 321 322 318 318 319 319 321 326 332 336 338 339 340 340 339 338 337 334 332 332 332
313 313 310 311 310 308 308 308 310 310 311 312 313 313 314 315 316 317 316 316 317 319 322 324 325 323 320 320 322 326 333 337 338 339 340 340 339 334 332 332 332 331 332 331
311 312 310 310 310 309 309 310 308 309 310 311 313 314 315 316 315 316 316 316 317 322 328 331 326 322 320 321 326 333 337 338 339 340 339 335 333 333 332 331 331 331 331 331
310 310 310 310 310 310 310 310 310 310 310 311 312 314 316 316 316 316 316 315 316 319 328 333 332 324 326 329 334 339 340 339 339 337 334 333 333 332 331 331 331 329 328 329
309 311 311 310 309 309 309 309 309 312 311 311 312 312 314 315 314 315 316 315 316 318 326 333 338 335 334 337 338 339 340 338 336 334 333 332 330 329 327 327 328 329 328 328
309 309 309 308 312 310 310 310 310 310 311 313 312 312 314 314 315 315 315 315 315 317 323 333 336 339 337 337 338 339 338 335 334 334 333 330 321 323 328 329 329 328 328 328
309 310 310 310 309 310 311 310 310 311 313 312 313 313 314 314 315 315 315 316 316 317 323 333 334 339 338 337 337 337 335 334 334 334 329 320 327 329 329 329 329 328 328 327
309 310 309 309 309 309 310 310 311 311 311 312 311 312 313 314 315 315 315 316 316 318 321 329 334 338 337 337 337 336 335 335 334 330 322 327 328 328 329 328 329 328 328 327
309 310 309 309 308 308 309 309 310 311 311 311 311 311 311 312 311 312 314 317 318 320 324 329 335 336 336 337 337 336 335 334 332 323 329 328 327 328 329 328 328 328 328 327
309 310 309 308 307 310 311 311 311 311 311 311 312 311 311 311 312 314 318 319 319 321 325 330 335 337 338 337 336 335 334 332 324 329 329 328 326 327 328 328 328 328 328 327
308 309 309 308 309 311 311 314 314 315 315 315 316 312 312 312 312 317 317 317 319 324 328 332 335 337 338 337 336 335 333 327 328 331 330 327 325 327 327 328 329 327 329 328
306 309 309 310 312 311 311 310 311 312 313 315 314 313 313 314 316 316 316 322 322 323 328 332 335 337 338 337 335 334 331 328 330 331 331 328 326 326 327 327 327 328 328 329
308 305 310 312 313 314 314 310 306 307 315 315 316 316 318 317 318 319 323 320 323 325 329 334 335 337 338 336 333 333 330 329 330 331 331 329 327 326 326 327 327 328 328 329
314 312 310 311 313 313 311 309 305 314 315 308 314 314 315 318 317 317 318 320 322 325 330 335 336 337 337 334 333 332 330 329 331 331 331 329 327 326 325 327 326 328 328 329
313 314 314 313 315 316 309 308 310 308 307 310 313 313 313 316 316 318 319 320 323 327 332 335 336 336 336 333 334 332 329 329 331 332 331 327 326 327 327 327 326 328 328 328
313 312 312 310 313 309 308 311 308 308 309 312 311 312 314 315 317 317 319 321 324 329 333 335 336 336 335 334 335 333 325 329 330 332 332 328 328 328 328 327 327 327 328 327
310 310 312 311 311 311 310 310 310 311 311 312 310 311 313 314 316 317 319 323 328 332 334 335 335 334 335 334 333 330 325 327 329 331 330 330 328 328 329 327 327 325 327 327
311 311 311 311 310 311 310 310 310 310 310 311 311 311 313 314 316 317 317 322 330 334 334 333 334 334 334 334 332 328 323 327 329 330 329 331 329 330 330 328 327 325 327 326
310 311 312 311 310 311 310 310 310 311 311 311 310 311 314 315 316 316 323 327 332 334 333 333 333 334 334 334 333 329 325 326 328 330 329 330 330 331 331 328 327 327 328 327

GFSCGP_850_thetae_060.txt.gz
Theta_e
310 312 312 311 312 311 314 317 319 320 320 322 324 324 325 324 324 326 326 327 327 327 327 327 327 327 327 326 323 323 323 324 324 323 327 329 331 332 338 338 333 331 332 336
311 312 311 311 311 310 312 315 317 319 318 321 322 324 324 325 325 325 326 326 326 326 326 326 326 326 326 327 323 322 322 323 323 323 324 332 335 342 342 340 331 331 333 337
310 311 311 310 310 310 312 313 315 317 318 320 321 323 324 324 324 324 324 324 323 324 324 324 323 324 325 326 324 322 321 321 321 322 324 327 330 334 338 340 334 333 338 338
310 310 310 310 310 310 311 311 312 314 318 320 320 323 323 323 324 324 323 323 323 323 323 322 322 322 324 325 325 325 319 320 320 321 327 327 336 341 341 341 343 339 339 338
313 311 310 310 309 310 310 311 312 315 316 318 319 322 322 322 323 324 324 323 322 321 321 321 321 321 322 322 323 324 318 319 319 322 327 327 337 343 343 344 340 342 339 340
313 312 312 310 310 309 311 311 312 314 316 319 318 319 320 321 322 322 323 321 320 320 320 321 321 321 321 321 322 324 318 319 319 325 328 329 343 343 344 345 345 344 343 341
313 313 312 311 309 310 310 311 312 314 316 317 318 319 320 321 320 321 321 320 320 320 321 322 322 324 322 323 324 329 320 320 323 328 331 334 334 338 340 341 344 343 341 340
314 313 312 312 311 311 310 310 313 314 315 315 316 317 319 319 320 320 319 319 320 323 324 326 328 330 324 324 327 334 337 340 332 334 336 339 338 344 343 342 341 340 338 337
313 313 312 311 311 311 311 310 311 311 312 314 316 316 317 319 319 320 319 319 320 323 327 332 334 333 329 326 332 336 341 343 344 342 342 341 343 343 342 341 338 338 338 338
311 313 311 311 311 311 312 310 311 310 314 313 315 317 317 318 318 319 320 320 320 321 324 329 336 335 331 334 339 342 344 345 344 343 343 343 342 341 336 334 338 338 337 337
309 311 312 311 312 312 313 311 311 312 311 311 314 316 318 319 319 320 320 319 319 320 322 328 337 335 337 339 342 344 345 345 344 344 342 340 339 338 337 337 336 336 332 334
309 311 312 311 311 310 311 313 313 315 315 313 314 318 319 320 320 320 319 318 319 319 320 328 337 337 339 341 343 344 344 343 343 341 340 339 338 338 337 336 336 335 334 334
311 310 312 310 312 312 311 310 311 313 314 317 314 316 318 318 318 317 318 318 318 318 319 324 335 337 339 342 343 343 342 341 340 338 338 338 336 335 334 334 334 334 335 334
309 312 311 312 311 311 311 311 312 312 314 313 314 315 317 318 317 317 317 317 316 317 318 322 331 337 339 341 342 342 341 339 338 337 336 335 332 333 334 335 335 335 334 334
309 312 311 310 310 310 310 310 311 312 312 313 313 314 315 316 316 316 315 314 314 317 318 320 327 337 340 341 341 340 339 338 337 335 333 332 334 335 335 335 335 334 334 333
311 311 311 311 310 310 310 310 310 310 311 312 312 313 313 313 312 313 313 313 315 318 319 320 326 337 339 340 340 339 338 337 335 333 331 332 333 333 334 334 335 334 333 332
311 311 312 312 310 309 311 311 311 312 312 312 313 313 313 313 314 314 313 313 315 318 319 321 328 336 339 341 339 337 337 335 333 331 331 332 333 332 333 333 333 334 333 332
310 310 311 311 310 312 313 314 313 314 314 315 315 315 316 316 313 313 313 315 317 318 321 328 332 338 340 340 339 337 336 334 330 330 331 331 331 331 332 333 333 333 331 331
307 310 312 313 314 313 312 313 313 312 313 313 314 315 317 316 315 314 314 315 320 324 325 329 333 338 339 339 339 337 335 331 329 330 330 330 330 331 332 333 333 332 331 331
310 305 311 314 315 316 318 312 309 307 313 311 312 317 318 319 320 318 320 323 323 325 327 329 336 338 339 338 338 336 333 328 330 330 330 329 328 332 333 333 332 332 331 330
314 313 311 313 315 315 312 311 308 315 315 309 310 311 315 317 318 318 318 319 322 324 328 331 337 337 339 339 338 335 331 329 330 330 330 329 330 330 331 332 332 332 331 331
314 315 317 316 318 317 311 310 311 311 310 310 310 313 313 314 316 317 319 321 324 327 330 334 337 338 339 339 337 334 330 329 330 330 329 329 331 332 332 332 332 332 330 330
313 313 314 315 314 312 311 311 311 310 310 311 313 312 314 313 315 317 321 322 325 329 332 336 337 339 339 338 336 333 329 329 331 330 328 330 332 332 333 333 332 331 330 330
312 311 313 312 311 311 311 311 310 310 310 311 311 312 313 315 315 318 320 323 326 329 335 337 338 339 339 338 336 333 329 329 331 331 329 331 333 333 334 333 332 330 331 329
313 312 312 312 310 310 311 309 310 309 309 311 312 312 313 313 316 319 321 322 325 329 336 337 338 339 339 337 337 330 328 330 331 331 330 331 333 333 334 333 331 330 330 330
312 312 313 313 310 310 310 310 310 308 309 312 311 311 312 315 318 317 320 325 330 335 337 338 338 339 338 337 334 329 328 330 332 331 330 330 332 334 333 332 330 328 330 326

GFSCGP_850_thetae_063.txt.gz
Theta_e
313 313 315 315 315 315 314 314 314 317 320 321 322 324 324 326 325 326 328 328 329 329 329 329 331 331 332 332 331 330 329 325 324 323 326 336 340 344 345 344 345 346 346 345
314 314 313 314 314 313 314 314 315 315 316 320 322 322 323 326 326 325 326 327 328 329 329 330 330 329 330 330 329 329 331 327 325 328 327 336 340 344 346 345 347 347 345 345
313 313 313 313 313 313 313 314 314 314 315 317 320 322 323 324 325 325 325 326 326 327 328 328 329 329 329 328 328 329 331 325 322 322 334 337 344 346 347 347 348 346 346 345
313 313 313 311 312 313 313 313 312 313 314 317 319 322 323 323 324 325 325 325 326 327 327 327 327 327 327 327 328 329 328 328 325 320 331 339 344 346 346 346 347 347 346 347
313 313 314 315 312 312 312 312 312 312 313 315 316 319 321 323 324 325 326 325 325 326 326 326 326 326 326 325 325 326 327 327 325 331 324 336 343 344 346 346 347 346 346 347
312 313 314 314 314 312 312 311 312 312 313 316 316 318 320 322 324 324 325 325 325 325 325 325 324 324 324 324 325 325 326 327 333 325 321 326 340 345 346 347 348 347 345 345
312 313 314 313 314 314 312 312 312 313 315 314 315 319 319 321 322 323 323 323 323 323 322 322 323 323 324 325 326 325 326 327 336 333 324 332 342 348 346 348 348 347 345 345
313 314 313 313 313 314 313 313 312 315 315 315 316 317 319 320 321 322 322 322 323 322 323 324 325 326 328 328 326 326 328 336 345 345 343 345 350 348 349 348 348 346 345 343
312 313 312 312 314 313 314 314 313 313 313 316 317 317 319 321 321 322 322 321 322 323 326 328 331 333 333 329 326 327 336 342 346 347 348 350 349 349 348 346 344 343 340 341
311 311 311 313 314 312 313 314 316 314 314 312 316 317 318 320 320 321 322 322 322 323 324 326 333 338 337 331 329 334 339 344 346 348 349 349 348 347 346 345 342 340 339 339
310 310 311 312 314 315 314 315 314 314 315 314 316 318 319 320 320 322 323 322 322 322 323 328 338 338 338 335 337 339 343 346 347 348 348 348 346 346 345 342 342 340 339 337
311 313 311 311 311 312 312 314 315 319 318 315 315 316 317 321 322 321 322 321 321 322 322 325 337 338 339 340 343 345 346 346 346 347 347 345 344 342 342 341 339 338 337 336
311 313 315 311 312 313 314 314 314 314 316 317 319 319 319 323 323 322 322 321 320 319 321 323 335 338 342 342 344 345 346 346 345 344 343 342 341 341 339 338 337 336 336 335
310 312 312 315 313 312 313 313 312 314 316 315 316 315 316 317 321 320 319 319 320 317 320 322 329 340 343 342 343 344 344 344 343 342 341 341 340 338 336 336 336 336 336 336
312 314 312 312 312 312 311 310 311 311 312 312 314 313 315 316 315 319 317 316 317 317 320 322 325 340 342 343 342 342 342 342 341 340 339 337 336 335 336 336 336 335 335 334
311 314 313 313 312 311 311 311 311 311 311 312 312 312 313 314 314 315 315 315 316 317 319 321 323 340 341 341 342 342 341 340 340 338 335 335 335 335 336 336 335 334 334 333
311 312 314 313 312 313 312 312 315 315 313 313 313 313 314 314 315 315 315 316 316 316 320 321 325 334 340 341 341 340 340 339 337 335 334 333 334 334 335 335 335 333 333 332
312 313 314 313 314 315 312 314 312 314 314 315 317 317 316 316 315 315 316 315 316 318 320 325 329 333 341 340 340 340 339 337 334 333 332 333 333 333 333 333 334 333 335 334
312 311 314 316 316 314 313 313 312 313 314 313 315 316 318 317 318 318 317 315 316 320 325 326 330 334 340 340 339 340 338 335 332 332 332 332 332 333 333 333 333 336 332 331
314 309 313 314 316 317 315 313 312 309 313 312 311 313 315 315 322 321 322 322 323 323 324 327 331 334 341 340 340 339 336 333 332 331 331 331 332 332 332 333 335 333 332 332
316 312 313 315 316 316 313 313 310 315 318 312 312 312 313 317 318 317 318 320 320 322 325 328 332 334 342 339 339 338 335 331 331 331 331 330 331 332 333 334 335 333 333 334
316 316 315 315 317 318 312 313 314 312 312 311 313 312 314 314 314 316 317 318 321 324 327 331 333 337 341 338 340 337 333 331 331 331 330 330 332 331 330 332 334 334 333 331
315 314 316 317 316 314 312 312 313 312 312 311 311 312 313 313 314 316 316 319 323 325 329 333 335 340 339 338 340 336 332 330 331 331 330 330 331 333 332 333 333 334 332 331
314 313 315 315 314 313 310 311 311 312 311 310 309 311 312 312 313 316 317 320 324 326 329 331 336 340 338 339 338 335 331 330 331 330 331 331 332 332 333 333 331 333 333 331
314 314 315 315 313 312 310 310 310 311 310 309 310 312 312 313 315 315 318 322 324 328 331 333 337 340 339 340 337 334 329 330 331 330 331 331 333 334 333 333 331 332 332 331
315 315 316 316 313 311 311 310 311 311 310 310 311 313 312 313 314 316 321 322 323 325 331 335 338 338 339 338 336 332 329 331 332 331 330 331 333 334 334 333 330 331 330 329

GFSCGP_850_thetae_069.txt.gz
Theta_e
313 311 311 311 311 313 313 313 313 314 315 313 313 313 314 315 315 315 320 322 327 327 327 326 329 329 330 332 333 332 332 334 336 336 335 333 331 327 326 325 328 334 340 343
310 310 312 313 314 313 313 312 312 313 314 313 313 313 313 314 314 315 316 319 323 327 327 327 327 328 328 330 333 332 332 332 333 335 334 332 328 326 325 326 333 338 341 344
310 312 313 313 312 313 312 312 312 312 313 313 313 312 313 313 314 315 316 317 320 325 327 328 327 328 328 331 332 332 332 332 331 331 330 329 328 327 327 336 342 342 343 344
310 311 313 312 313 313 313 314 315 314 312 311 312 312 311 312 313 313 315 317 318 320 325 325 326 327 329 332 334 333 332 332 332 331 330 329 326 325 325 338 345 344 345 344
309 309 311 312 312 315 315 314 314 314 312 309 310 309 310 311 312 313 313 315 316 320 321 325 325 326 326 332 332 332 332 331 330 329 329 328 325 323 330 334 345 346 346 345
309 311 313 314 314 314 313 313 313 311 309 310 310 310 311 310 311 312 313 314 315 317 322 323 325 325 325 326 331 332 330 329 329 328 327 326 326 324 335 343 348 347 347 347
310 310 314 314 313 312 311 312 314 314 312 312 311 311 311 312 313 314 314 315 315 316 317 320 323 325 325 325 329 329 328 328 327 327 326 325 326 327 330 341 347 347 348 347
310 310 310 314 313 311 312 313 316 316 312 311 313 313 312 313 313 314 314 315 316 317 316 319 323 326 325 326 327 326 328 328 327 326 326 326 328 330 330 341 346 346 347 346
310 312 311 311 311 310 310 310 310 311 311 312 312 312 313 315 317 317 316 316 316 315 318 324 324 325 326 325 324 324 324 323 324 325 327 327 330 332 332 346 349 346 346 345
311 310 310 310 311 311 311 310 311 312 314 315 312 312 313 317 317 315 315 314 314 316 319 326 327 328 328 329 328 328 331 330 325 326 327 331 334 329 332 342 350 346 345 344
310 311 312 310 310 311 312 311 314 315 316 317 315 313 318 316 315 315 314 314 315 317 319 323 325 326 330 329 331 334 333 332 328 330 332 332 332 333 344 352 348 346 347 345
311 310 310 311 310 312 314 314 313 316 316 315 315 315 316 314 313 314 313 313 316 319 320 324 336 336 333 331 330 331 335 328 328 329 334 342 340 347 350 348 348 348 346 344
312 310 312 310 310 311 312 312 311 311 311 314 316 314 313 314 313 314 314 315 315 318 317 317 324 336 335 334 335 338 333 335 340 344 344 345 348 349 350 349 345 341 341 340
312 311 312 312 312 311 312 312 311 311 313 313 314 313 315 315 314 314 312 313 314 314 315 317 320 330 337 339 339 337 342 344 345 344 344 348 348 347 347 344 341 340 339 337
312 313 313 313 312 312 312 312 312 313 312 314 315 315 315 314 313 314 313 313 314 314 315 317 321 323 338 341 341 338 343 343 342 344 346 348 345 345 343 342 341 338 333 332
312 314 313 314 312 313 313 313 313 313 313 313 313 315 314 314 315 314 314 316 316 315 318 317 322 327 335 339 341 342 344 342 344 344 344 344 342 341 341 338 335 335 333 334
313 314 312 312 312 313 313 316 315 314 313 313 313 313 312 313 314 315 315 316 321 321 322 319 323 326 333 332 339 340 342 341 343 341 341 341 340 339 337 334 335 334 333 334
314 313 313 313 313 315 315 314 314 313 312 312 313 312 312 312 312 313 314 318 318 318 320 323 327 329 331 330 338 340 341 342 340 340 339 340 338 335 335 335 334 333 333 331
314 313 314 312 311 313 313 314 314 313 312 311 312 313 313 313 314 313 317 316 316 317 318 320 323 324 327 329 335 340 340 341 341 338 336 335 337 336 335 335 332 332 333 331
309 307 311 313 314 310 312 312 312 310 310 311 312 312 313 312 314 314 314 313 316 317 317 319 321 324 328 331 332 339 338 339 336 335 335 335 336 335 335 332 331 332 333 332
315 313 313 312 312 313 314 313 310 311 308 312 312 311 312 312 311 312 312 314 314 316 317 318 320 324 328 333 335 338 337 336 335 334 334 335 334 333 334 333 331 332 333 333
312 315 311 314 311 312 312 312 315 311 312 313 313 313 313 311 311 311 312 313 314 314 316 317 319 324 326 333 337 338 337 335 333 333 333 333 333 333 333 332 332 333 332 331
311 314 315 314 310 314 314 313 312 313 312 313 313 312 312 311 310 311 311 312 313 314 315 317 319 322 328 330 337 338 336 334 333 332 333 333 333 332 331 332 333 331 331 331
313 313 312 313 315 315 313 312 313 313 312 311 310 311 311 310 311 311 310 312 313 314 315 317 319 323 326 331 337 338 335 333 331 333 332 331 330 331 330 331 331 332 332 331
310 312 315 313 314 313 313 312 312 311 310 310 310 310 310 310 310 311 312 312 314 314 315 317 320 325 326 329 336 338 334 332 331 331 332 331 330 331 332 333 333 331 330 330
312 314 314 316 314 314 314 312 312 311 310 309 308 308 309 309 311 312 312 313 314 315 315 317 322 324 327 333 337 336 333 332 331 332 330 330 330 331 330 329 332 332 330 330

GFSCGP_850_thetae_072.txt.gz
Theta_e
310 308 308 308 308 310 311 311 311 312 312 312 311 311 312 312 313 312 313 313 314 315 315 322 326 326 325 325 327 331 334 334 337 338 337 341 340 336 332 329 330 333 331 333
308 309 310 311 311 311 311 311 310 311 312 312 310 311 312 311 311 312 313 313 314 314 316 316 318 325 323 325 326 328 336 334 335 336 335 335 333 335 334 332 328 330 331 332
308 309 311 311 311 311 311 311 312 313 313 311 311 311 311 312 312 312 312 313 313 313 314 315 317 320 324 325 325 327 329 336 334 333 333 334 335 335 333 331 327 326 329 337
308 309 309 311 311 312 313 314 313 313 313 311 310 311 310 310 310 310 311 311 311 311 313 313 315 317 322 326 324 328 328 333 334 332 333 332 331 331 329 327 327 325 337 341
308 309 308 310 314 314 313 313 312 312 312 310 310 308 310 309 310 310 310 311 313 313 313 313 314 315 318 324 326 326 329 330 334 332 333 332 331 330 329 327 325 324 332 343
308 309 312 313 313 312 312 312 311 310 308 309 309 308 310 308 309 309 311 314 315 316 316 315 315 316 317 320 324 325 333 331 334 333 332 332 330 329 328 326 325 324 327 344
309 309 313 313 312 309 309 310 311 311 310 311 310 310 310 310 311 315 316 315 315 315 315 317 317 316 316 316 322 326 327 332 333 332 331 330 329 327 326 327 324 323 335 346
308 308 310 312 311 310 309 309 311 315 315 313 311 311 310 314 315 315 314 314 313 313 314 316 318 318 317 317 318 325 325 328 331 331 330 329 327 326 325 327 326 326 338 347
309 311 309 310 309 309 309 309 309 312 310 310 309 310 310 314 315 314 314 313 312 312 313 316 321 320 322 322 322 323 326 329 330 330 329 327 327 326 326 326 327 329 341 346
309 309 309 310 309 309 310 309 309 308 313 315 312 312 311 316 315 314 313 312 312 313 315 320 319 322 324 323 323 323 325 327 329 328 328 327 326 326 327 330 329 329 343 346
309 309 310 309 309 309 310 310 311 310 310 311 315 312 314 315 314 313 313 314 314 314 315 319 319 317 329 327 325 325 326 328 328 327 326 325 325 326 331 333 331 333 348 347
310 309 309 310 309 309 311 311 312 308 310 312 313 312 312 313 312 313 313 313 312 314 316 319 319 316 323 334 334 332 331 332 330 327 328 328 327 331 336 333 328 337 348 346
311 308 311 308 308 308 311 310 310 310 309 313 313 311 313 312 313 314 313 313 313 314 318 319 317 316 319 332 334 331 331 329 331 333 330 329 332 334 332 331 341 350 347 345
312 308 309 309 310 308 312 312 311 310 314 312 312 312 313 314 314 313 315 314 313 315 316 318 318 317 321 333 339 338 331 330 330 330 329 329 336 341 339 349 350 348 346 345
309 310 311 311 312 313 313 313 313 312 311 312 313 315 314 313 313 314 313 316 314 316 316 316 319 322 332 328 334 340 340 337 331 333 339 342 343 347 350 347 347 346 343 341
308 310 313 313 313 312 312 312 313 313 313 312 312 311 312 311 312 312 314 316 317 317 315 319 318 326 329 328 329 336 339 337 339 340 342 344 345 348 344 345 341 340 337 336
308 309 312 313 312 312 314 314 315 314 313 312 313 311 310 311 312 312 312 313 313 315 318 316 317 318 322 330 326 329 336 339 338 342 341 345 346 345 343 341 338 336 334 333
309 312 313 314 310 311 313 313 313 313 312 312 311 311 311 312 312 312 312 313 314 314 314 315 316 317 325 330 325 329 331 338 338 340 342 344 343 342 339 336 334 331 333 333
310 310 313 315 306 311 311 314 313 313 312 312 310 311 311 312 312 311 311 313 310 310 313 314 316 317 320 329 329 326 330 336 338 341 341 339 340 339 336 334 334 332 331 332
310 310 313 313 313 309 306 311 311 310 312 309 310 310 311 311 311 309 310 310 309 309 312 314 315 316 320 327 330 325 327 337 339 339 338 340 338 334 334 334 333 332 331 330
313 311 311 314 312 312 311 312 310 310 309 310 311 311 310 310 310 311 311 311 310 309 312 313 314 315 319 322 329 325 324 337 338 338 338 335 333 333 334 333 331 332 332 331
312 311 311 312 312 310 312 310 313 311 312 311 311 311 311 312 312 312 311 310 310 310 310 312 314 314 318 327 328 325 334 336 335 334 335 336 334 333 332 330 329 331 332 332
311 312 314 314 308 308 312 313 314 313 312 312 311 312 311 311 311 311 311 310 310 310 311 311 313 315 318 327 329 328 333 334 335 335 336 334 332 332 331 331 331 332 333 333
311 309 309 310 311 312 311 313 312 313 312 312 310 310 310 310 310 310 310 310 310 310 311 312 313 315 319 325 326 326 333 333 334 334 334 332 331 332 332 331 332 332 331 330
307 308 310 311 312 312 312 313 313 312 311 311 310 308 308 308 308 308 310 310 311 311 312 313 314 315 318 323 327 333 334 333 333 333 332 331 331 331 331 331 331 330 330 330
308 310 311 311 312 313 313 313 312 311 310 308 307 307 307 308 309 310 310 311 312 312 312 313 314 315 317 322 327 334 333 333 333 332 331 330 329 330 331 331 330 331 330 330

GFSCGP_850_thetae_075.txt.gz
Theta_e
309 307 307 307 307 309 310 310 309 310 310 310 309 310 310 311 311 311 312 313 313 312 313 313 314 314 317 319 321 325 326 325 329 335 339 339 339 339 340 336 336 334 330 328
306 308 309 309 309 309 309 310 310 310 312 312 310 311 310 309 310 311 312 312 312 311 311 311 312 313 315 317 318 321 324 326 326 334 337 338 338 339 336 334 336 333 330 330
307 308 309 310 310 310 310 313 313 313 312 312 310 312 311 310 310 311 311 311 311 311 311 312 313 313 313 315 317 318 321 324 326 330 336 339 339 338 336 335 336 333 332 328
307 308 309 308 310 312 312 312 312 312 311 311 311 311 311 310 309 309 311 311 310 312 313 314 314 313 314 314 316 318 318 323 326 327 334 339 338 336 334 333 334 333 330 327
307 308 307 308 311 312 310 312 311 312 311 310 310 308 309 309 310 308 307 313 314 315 315 315 315 314 313 314 315 316 317 320 325 328 328 336 338 336 333 333 334 330 328 327
306 308 309 310 312 311 311 311 308 308 307 309 309 308 308 308 308 309 313 314 314 314 313 313 315 316 315 313 314 315 316 319 323 328 329 331 336 336 336 334 331 328 328 326
308 308 312 312 311 308 307 306 307 308 310 311 309 310 308 309 311 313 314 314 314 313 311 312 312 312 315 316 314 315 316 317 323 325 329 331 333 336 335 332 330 328 326 324
306 307 309 310 310 308 308 307 306 310 311 308 309 310 308 309 314 314 314 313 312 312 312 312 313 313 316 318 317 316 316 318 320 325 333 333 333 336 333 331 328 326 325 324
309 310 309 309 309 308 308 308 306 309 308 309 308 308 308 309 313 313 312 312 312 313 313 313 313 314 319 318 319 319 317 318 320 325 330 333 334 334 332 329 327 325 326 326
308 310 308 309 309 308 309 309 309 305 311 312 310 309 310 310 311 313 311 311 313 313 312 313 315 316 319 318 323 326 321 321 322 324 328 327 331 331 331 328 327 326 327 327
309 307 309 308 308 307 307 309 309 306 306 307 311 310 308 311 311 311 310 312 313 313 313 314 317 319 319 320 322 329 327 323 322 322 325 329 331 331 329 327 327 328 329 330
310 308 310 309 308 309 307 309 309 306 308 310 310 311 309 311 311 310 311 313 313 313 313 315 317 318 318 321 325 333 334 328 322 322 324 327 330 330 328 328 327 329 332 331
309 308 310 308 307 307 310 310 310 308 308 313 312 311 311 311 311 312 312 312 313 314 314 314 316 318 321 328 328 329 336 335 329 324 326 328 330 328 327 327 328 334 333 334
311 307 310 310 308 306 310 310 310 312 313 311 311 311 310 310 311 312 313 313 313 315 313 315 316 317 317 325 329 328 332 335 333 332 330 328 328 328 328 330 334 335 330 339
308 309 309 310 310 311 312 312 312 312 312 313 312 311 310 311 311 311 311 312 314 316 312 316 317 315 315 323 328 326 337 337 334 333 331 331 330 331 333 334 334 331 339 347
306 309 310 312 312 312 312 312 312 311 311 312 312 312 310 310 310 310 311 311 312 313 314 316 315 315 313 318 328 328 333 334 339 335 332 334 335 333 336 339 339 347 348 346
307 308 310 311 310 311 313 312 312 313 312 311 312 312 310 310 310 311 311 311 312 313 313 312 313 313 314 316 329 328 331 337 335 338 335 335 338 340 340 345 344 345 347 344
305 306 308 311 312 316 311 313 313 313 312 311 310 311 310 310 310 311 311 311 313 310 310 309 310 311 314 317 326 328 327 337 337 337 338 338 340 340 343 345 343 341 341 336
306 309 313 314 308 310 310 313 312 312 311 310 310 310 310 310 310 310 310 309 310 310 310 310 310 312 314 315 324 329 326 329 333 335 337 340 339 342 344 341 339 337 335 333
309 310 312 313 312 307 305 310 311 309 313 308 309 308 309 310 311 310 310 310 310 311 311 310 310 310 313 315 325 328 329 325 328 335 337 338 338 343 340 339 336 333 331 332
313 312 313 313 313 308 309 311 310 313 310 310 312 310 309 309 310 311 311 311 310 310 310 310 310 311 313 315 325 327 326 325 326 328 333 337 339 339 336 333 330 332 331 331
312 312 312 312 313 312 311 310 312 309 311 312 312 312 310 311 311 310 310 309 309 309 309 309 310 311 312 316 324 327 325 325 325 325 334 338 339 335 334 333 332 331 330 329
311 310 313 311 310 308 310 311 312 312 311 313 312 312 312 310 309 309 309 308 309 309 309 310 311 312 312 316 322 326 323 323 326 328 337 335 333 333 333 332 331 332 331 330
310 308 307 306 308 308 311 312 312 312 312 312 312 311 310 309 308 308 308 308 308 308 309 310 311 313 314 317 320 322 322 322 331 335 333 332 332 333 329 329 330 331 332 331
306 306 306 307 308 309 310 311 311 312 311 310 309 307 307 307 307 307 307 309 309 309 310 311 311 313 314 317 321 325 331 333 334 333 333 332 331 330 329 330 330 331 332 332
306 306 309 308 307 309 310 311 311 311 308 307 306 305 306 306 307 307 308 309 310 310 311 313 313 312 314 318 324 324 332 333 333 333 332 330 330 331 331 331 332 332 331 330